Shepherd Bay, Nunavut

1:14 AM CST on December 08, 2016 (GMT -0600)
Shepherd Bay

Weather History for CYUS - February, 2012

Change the Weather History Date:

Monday, February 6, 2012

  Actual Average (CYYH) Record (CYYH)
Temperature  
Mean Temperature -16 °F -  
Max Temperature -11 °F - -7 °F (2004)
Min Temperature -20 °F -40 °F -40 °F (2001)
Degree Days  
Heating Degree Days 80    
Moisture  
Dew Point -    
Average Humidity    
Maximum Humidity    
Minimum Humidity    
Precipitation  
Precipitation 0.00 in 0.01 in - ()
Sea Level Pressure  
Sea Level Pressure 30.01 in    
Wind  
Wind Speed 17 mph ()    
Max Wind Speed 33 mph    
Max Gust Speed 30 mph    
Visibility 0.9 miles    
Events      
Averages and records for this station are not official NWS values.
T = Trace of Precipitation, MM = Missing Value Source: Averaged Metar Reports

Daily Weather History Graph

Daily Weather History Graph

Search for Another Location

Airport or City:

Trip Planner

Search our weather history database for the weather conditions in past years. The results will help you decide how hot, cold, wet, or windy it might be!

Date:

Astronomy

Feb. 06, 2012 Rise Set
Actual Time 9:19 AM CST 3:37 PM CST
Civil Twilight 8:08 AM CST 4:48 PM CST
Nautical Twilight 6:57 AM CST 6:00 PM CST
Astronomical Twilight 5:50 AM CST 7:06 PM CST
Moon 2:30 PM CST (2/6) 8:31 AM CST (2/6)
Length of Visible Light 8h 40m
Length of Day
6h 17m
Waxing Gibbous, 98% of the Moon is Illuminated
Feb 6
Waxing Gibbous
Feb 7
Full
Feb 14
Last Quarter
Feb 21
New
Feb 29
First Quarter

Hourly Weather History & Observations

Time (CST) Temp. Windchill Dew Point Humidity Pressure Visibility Wind Dir Wind Speed Gust Speed Precip Events Conditions
12:00 AM -15 °F - - % 30.25 in 1 mi WNW 15.0 mph - -   Overcast
12:00 AM -14.8 °F -37.5 °F - N/A% 30.25 in 1.0 mi WNW 13.8 mph - N/A   Overcast
12:11 AM -14.8 °F -41.2 °F - N/A% 30.20 in 1.1 mi West 19.6 mph - N/A   Overcast
12:13 AM -14.8 °F -41.2 °F - N/A% 30.20 in 1.0 mi West 19.6 mph - N/A   Overcast
12:17 AM -14.8 °F -40.5 °F - N/A% 30.21 in 0.6 mi West 18.4 mph - N/A   Overcast
12:32 AM -14.8 °F -39.1 °F - N/A% 30.21 in 1.0 mi West 16.1 mph - N/A   Overcast
12:39 AM -14.8 °F -45.0 °F - N/A% 30.18 in 1.0 mi West 27.6 mph - N/A   Overcast
12:41 AM -14.8 °F -45.9 °F - N/A% 30.17 in 0.6 mi West 29.9 mph - N/A   Overcast
12:47 AM -16.6 °F -46.9 °F - N/A% 30.17 in 0.4 mi West 26.5 mph - N/A   Overcast
1:00 AM -16.6 °F -45.3 °F - N/A% 30.21 in 0.4 mi West 23.0 mph - N/A   Overcast
1:11 AM -16.6 °F -45.9 °F - N/A% 30.17 in 0.6 mi West 24.2 mph - N/A   Clear
1:22 AM -16.6 °F -46.4 °F - N/A% 30.18 in 0.4 mi West 25.3 mph - N/A   Clear
1:37 AM -16.6 °F -42.9 °F - N/A% 30.19 in 0.8 mi West 18.4 mph - N/A   Clear
1:48 AM -18.4 °F -45.9 °F - N/A% 30.18 in 1.1 mi West 19.6 mph - N/A   Clear
1:57 AM -18.4 °F -44.5 °F - N/A% 30.18 in 1.4 mi West 17.3 mph - N/A   Clear
2:00 AM -18.4 °F -42.9 °F - N/A% 30.21 in 1.5 mi West 15.0 mph - N/A   Clear
2:07 AM -18.4 °F -46.5 °F - N/A% 30.16 in 1.0 mi West 20.7 mph - N/A   Clear
2:09 AM -18.4 °F -48.8 °F - N/A% 30.16 in 0.6 mi West 25.3 mph - N/A   Clear
2:14 AM -18.4 °F -50.8 °F - N/A% 30.15 in 0.5 mi West 29.9 mph - N/A   Clear
2:17 AM -18.4 °F -50.3 °F - N/A% 30.15 in 0.5 mi West 28.8 mph - N/A   Clear
2:30 AM -18.4 °F -49.4 °F - N/A% 30.16 in 0.4 mi WNW 26.5 mph - N/A   Clear
2:46 AM -18.4 °F -45.9 °F - N/A% 30.17 in 0.8 mi WNW 19.6 mph - N/A   Clear
3:00 AM -18 °F - - % 30.21 in 1 mi West 19.6 mph - -  
3:00 AM -18.4 °F -45.9 °F - N/A% 30.21 in 1.0 mi West 19.6 mph - N/A   Clear
3:10 AM -18.4 °F -44.5 °F - N/A% 30.19 in 1.2 mi West 17.3 mph - N/A   Clear
3:25 AM -18.4 °F -45.2 °F - N/A% 30.18 in 1.0 mi WNW 18.4 mph - N/A   Overcast
3:28 AM -18.4 °F -47.7 °F - N/A% 30.17 in 0.6 mi WNW 23.0 mph - N/A   Clear
3:33 AM -18.4 °F -48.8 °F - N/A% 30.17 in 0.4 mi WNW 25.3 mph - N/A   Clear
4:00 AM -18.4 °F -47.7 °F - N/A% 30.19 in 0.5 mi WNW 23.0 mph 29.9 mph N/A   Clear
4:23 AM -18.4 °F -42.9 °F - N/A% 30.16 in 1.0 mi WNW 15.0 mph - N/A   Clear
4:28 AM -18.4 °F -45.9 °F - N/A% 30.15 in 0.6 mi WNW 19.6 mph - N/A   Clear
4:50 AM -18.4 °F -45.9 °F - N/A% 30.15 in 1.0 mi West 19.6 mph - N/A   Clear
4:59 AM -18.4 °F -44.5 °F - N/A% 30.15 in 1.5 mi West 17.3 mph - N/A   Clear
5:00 AM -18.4 °F -45.2 °F - N/A% 30.17 in 1.6 mi West 18.4 mph - N/A   Clear
5:05 AM -18.4 °F -47.1 °F - N/A% 30.14 in 1.6 mi West 21.9 mph - N/A   Clear
5:09 AM -18.4 °F -47.1 °F - N/A% 30.14 in 1.5 mi West 21.9 mph - N/A   Clear
5:30 AM -18.4 °F -41.2 °F - N/A% 30.15 in 1.6 mi West 12.7 mph 19.6 mph N/A   Clear
5:43 AM -18.4 °F -36.6 °F - N/A% 30.15 in 1.5 mi WSW 8.1 mph 20.7 mph N/A   Clear
5:48 AM -18.4 °F -39.1 °F - N/A% 30.15 in 1.4 mi SW 10.4 mph - N/A   Clear
5:52 AM -18.4 °F -44.5 °F - N/A% 30.15 in 1.0 mi West 17.3 mph - N/A   Clear
5:55 AM -18.4 °F -47.1 °F - N/A% 30.15 in 0.6 mi West 21.9 mph - N/A   Clear
6:00 AM -19 °F - - % 30.18 in 1 mi West 20.7 mph - -  
6:32 AM -20.2 °F -47.5 °F - N/A% 30.13 in 1.0 mi West 18.4 mph - N/A   Clear
6:33 AM -20.2 °F -46.8 °F - N/A% 30.13 in 1.1 mi West 17.3 mph - N/A   Clear
6:35 AM -20.2 °F -46.0 °F - N/A% 30.13 in 1.1 mi West 16.1 mph - N/A   Clear
6:50 AM -20.2 °F -41.3 °F - N/A% 30.14 in 2.0 mi WSW 10.4 mph - N/A   Overcast
6:59 AM -20.2 °F -38.8 °F - N/A% 30.13 in 1.4 mi WSW 8.1 mph - N/A   Clear
7:00 AM -20.2 °F -40.1 °F - N/A% 30.16 in 1.4 mi WSW 9.2 mph - N/A   Clear
7:06 AM -18.4 °F -42.1 °F - N/A% 30.13 in 1.0 mi WSW 13.8 mph - N/A   Overcast
7:26 AM -18.4 °F -40.2 °F - N/A% 30.12 in 1.0 mi WSW 11.5 mph - N/A   Overcast
7:31 AM -18.4 °F -37.9 °F - N/A% 30.11 in 1.0 mi WSW 9.2 mph - N/A   Overcast
7:34 AM -18.4 °F -42.9 °F - N/A% 30.11 in 0.6 mi WSW 15.0 mph - N/A   Overcast
7:57 AM -18.4 °F -37.9 °F - N/A% 30.11 in 1.0 mi West 9.2 mph - N/A   Clear
8:00 AM -18.4 °F -39.1 °F - N/A% 30.13 in 1.4 mi West 10.4 mph - N/A   Clear
8:07 AM -16.6 °F -40.6 °F - N/A% 30.10 in 1.4 mi West 15.0 mph - N/A   Partly Cloudy
8:11 AM -16.6 °F -39.8 °F - N/A% 30.10 in 3.0 mi West 13.8 mph - N/A   Partly Cloudy
8:21 AM -16.6 °F -40.6 °F - N/A% 30.10 in 3.5 mi West 15.0 mph - N/A   Partly Cloudy
8:28 AM -16.6 °F -42.1 °F - N/A% 30.09 in 2.5 mi West 17.3 mph - N/A   Scattered Clouds
8:46 AM -16.6 °F -37.9 °F - N/A% 30.09 in 1.4 mi WSW 11.5 mph - N/A   Overcast
9:00 AM -16 °F - - % 30.11 in 1 mi West 10.4 mph - -   Overcast
9:00 AM -16.6 °F -38.9 °F - N/A% 30.11 in 1.1 mi West 12.7 mph - N/A   Overcast
9:21 AM -16.6 °F -42.1 °F - N/A% 30.06 in 1.0 mi West 17.3 mph - N/A   Overcast
9:24 AM -16.6 °F -37.9 °F - N/A% 30.06 in 0.6 mi WSW 11.5 mph 18.4 mph N/A   Overcast
9:34 AM -14.8 °F -34.6 °F - N/A% 30.06 in 1.0 mi WSW 10.4 mph 17.3 mph N/A   Clear
10:00 AM -14.8 °F -33.5 °F - N/A% 30.07 in 1.2 mi WSW 9.2 mph - N/A   Clear
10:06 AM -14.8 °F -34.6 °F - N/A% 30.05 in 1.0 mi WSW 10.4 mph - N/A   Clear
10:26 AM -14.8 °F -34.6 °F - N/A% 30.03 in 1.2 mi West 10.4 mph 18.4 mph N/A   Clear
10:42 AM -14.8 °F -36.6 °F - N/A% 30.03 in 1.1 mi WSW 12.7 mph 18.4 mph N/A   Clear
10:44 AM -14.8 °F -38.3 °F - N/A% 30.03 in 1.0 mi WSW 15.0 mph 20.7 mph N/A   Partly Cloudy
10:49 AM -14.8 °F -36.6 °F - N/A% 30.03 in 0.6 mi WSW 12.7 mph 20.7 mph N/A   Partly Cloudy
11:00 AM -14.8 °F -35.6 °F - N/A% 30.04 in 0.6 mi WSW 11.5 mph 20.7 mph N/A   Scattered Clouds
11:08 AM -14.8 °F -32.2 °F - N/A% 30.00 in 1.4 mi WSW 8.1 mph - N/A   Mostly Cloudy
11:10 AM -14.8 °F -30.8 °F - N/A% 30.00 in 3.0 mi WSW 6.9 mph - N/A   Overcast
11:15 AM -13.0 °F -31.3 °F - N/A% 29.99 in 3.5 mi WSW 9.2 mph - N/A   Partly Cloudy
11:20 AM -13.0 °F -32.4 °F - N/A% 29.99 in 2.8 mi WSW 10.4 mph - N/A   Partly Cloudy
11:25 AM -13.0 °F -34.3 °F - N/A% 29.99 in 1.4 mi WSW 12.7 mph - N/A   Partly Cloudy
11:29 AM -13.0 °F -34.3 °F - N/A% 29.99 in 0.8 mi WSW 12.7 mph - N/A   Scattered Clouds
11:31 AM -13.0 °F -32.4 °F - N/A% 29.98 in 0.6 mi WSW 10.4 mph 17.3 mph N/A   Scattered Clouds
11:45 AM -13.0 °F -32.4 °F - N/A% 29.98 in 0.6 mi WSW 10.4 mph - N/A   Overcast
11:53 AM -13.0 °F -34.3 °F - N/A% 29.98 in 1.0 mi WSW 12.7 mph - N/A   Overcast
11:54 AM -13.0 °F -34.3 °F - N/A% 29.98 in 1.0 mi WSW 12.7 mph 18.4 mph N/A   Mostly Cloudy
12:00 PM -14 °F - - % 30.00 in 1 mi WSW 13.8 mph - -  
12:00 PM -13.0 °F -36.0 °F - N/A% 30.00 in 0.8 mi WSW 15.0 mph - N/A   Mostly Cloudy
12:06 PM -13.0 °F -34.3 °F - N/A% 29.97 in 0.6 mi WSW 12.7 mph - N/A   Mostly Cloudy
12:14 PM -13.0 °F -33.4 °F - N/A% 29.96 in 0.6 mi SW 11.5 mph 17.3 mph N/A   Overcast
12:51 PM -13.0 °F -33.4 °F - N/A% 29.93 in 0.8 mi SW 11.5 mph - N/A   Overcast
12:58 PM -13.0 °F -35.2 °F - N/A% 29.93 in 0.6 mi WSW 13.8 mph - N/A   Overcast
1:00 PM -13.0 °F -33.4 °F - N/A% 29.96 in 0.6 mi SW 11.5 mph - N/A   Overcast
2:00 PM -11.2 °F -30.1 °F - N/A% 29.90 in 0.5 mi SW 10.4 mph - N/A   Overcast
2:19 PM -11.2 °F -35.2 °F - N/A% 29.85 in 0.4 mi WSW 17.3 mph - N/A   Overcast
2:29 PM -11.2 °F -35.2 °F - N/A% 29.85 in 0.2 mi WSW 17.3 mph 24.2 mph N/A   Overcast
2:39 PM -11.2 °F -33.7 °F - N/A% 29.83 in 0.2 mi WSW 15.0 mph - N/A   Overcast
3:00 PM -11 °F - - % 29.84 in 0 mi WSW 17.3 mph - -   Overcast
3:00 PM -11.2 °F -35.8 °F - N/A% 29.84 in 0.2 mi WSW 18.4 mph - N/A   Overcast
3:36 PM -11.2 °F -36.4 °F - N/A% 29.78 in 0.1 mi WSW 19.6 mph - N/A   Overcast
4:00 PM -11.2 °F -35.2 °F - N/A% 29.78 in 0.1 mi WSW 17.3 mph 24.2 mph N/A   Overcast
5:00 PM -11.2 °F -40.6 °F - N/A% 29.75 in 0.1 mi West 28.8 mph - N/A   Clear
5:31 PM -13.0 °F -41.1 °F - N/A% 29.72 in 0.4 mi West 24.2 mph - N/A   Clear
5:56 PM -13.0 °F -39.4 °F - N/A% 29.72 in 0.6 mi West 20.7 mph - N/A   Clear
6:00 PM -14 °F - - % 29.75 in 1 mi West 20.7 mph - -  
6:00 PM -13.0 °F -38.8 °F - N/A% 29.75 in 1.0 mi West 19.6 mph 25.3 mph N/A   Mostly Cloudy
6:11 PM -13.0 °F -38.8 °F - N/A% 29.72 in 1.1 mi West 19.6 mph - N/A   Overcast
6:59 PM -14.8 °F -42.9 °F - N/A% 29.68 in 1.0 mi West 23.0 mph - N/A   Overcast
7:00 PM -14.8 °F -43.5 °F - N/A% 29.70 in 0.8 mi West 24.2 mph - N/A   Overcast
7:02 PM -14.8 °F -44.0 °F - N/A% 29.67 in 0.6 mi West 25.3 mph - N/A   Overcast
7:19 PM -14.8 °F -41.8 °F - N/A% 29.67 in 1.0 mi WNW 20.7 mph - N/A   Overcast
7:26 PM -14.8 °F -42.4 °F - N/A% 29.66 in 1.0 mi WNW 21.9 mph - N/A   Overcast
7:31 PM -14.8 °F -41.8 °F - N/A% 29.66 in 0.8 mi WNW 20.7 mph - N/A   Overcast
7:34 PM -14.8 °F -41.8 °F - N/A% 29.66 in 0.6 mi WNW 20.7 mph - N/A   Overcast
7:49 PM -14.8 °F -44.0 °F - N/A% 29.64 in 0.6 mi WNW 25.3 mph - N/A   Overcast
7:57 PM -14.8 °F -44.5 °F - N/A% 29.64 in 0.6 mi WNW 26.5 mph - N/A   Overcast
8:00 PM -14.8 °F -44.0 °F - N/A% 29.67 in 0.5 mi WNW 25.3 mph - N/A   Overcast
8:12 PM -14.8 °F -43.5 °F - N/A% 29.64 in 0.4 mi WNW 24.2 mph - N/A   Clear
8:34 PM -14.8 °F -45.0 °F - N/A% 29.63 in 0.1 mi WNW 27.6 mph - N/A   Clear
9:00 PM -16 °F - - % 29.65 in 0 mi WNW 28.8 mph - -  
9:00 PM -16.6 °F -48.4 °F - N/A% 29.65 in 0.1 mi WNW 29.9 mph - N/A   Clear
10:00 PM -18.4 °F -52.1 °F - N/A% 29.62 in 0.1 mi WNW 33.4 mph - N/A   Clear
11:00 PM -20.2 °F -53.7 °F - N/A% 29.62 in 0.1 mi WNW 31.1 mph - N/A   Clear